Starlink 11488

operational
NORAD ID: 62222 Int'l Des: 2024-231 Owner: SPXS Country: US Constellation: starlink
LEOCIRCULAR

Über Starlink 11488

Beschreibung wird geladen...

Live-Position

3D-Globus wird geladen...

Nächste Überflüge

Höhenverlauf

Altitude vs Time

uPlot chart will show altitude changes over time

Zweizeiliger Elementsatz

1 62222U 24231E 25259.96053406 .00180706 00000-0 14617-2 0 9995
2 62222 53.1561 237.8143 0001269 83.0195 277.0967 15.69750669 46124
Epoch: 16. Sept. 2025 • Age: 22 hours

Aktueller Status

Höhe 362.5 km
Geschwindigkeit 7.70 km/s
Subsatellitenpunkt 44.14°N, 55.69°E
Startdatum 5. Dez. 2024
Alter 0.7 years
Typ internet

Technische Details

Klassifizierung Payload
Masse 960.00 kg
Trockenmasse 910.00 kg
Gesamtmasse 960.00 kg
Länge 0.30 m
Durchmesser 4.10 m
Spannweite 29.00 m
Form Box + pan
Hersteller SPXS
Bus-Typ Starlink V2MD
Phasenstatus In Orbit
Besitzer/Staat SPXS/US

Große Konstellationen

Loading constellations...